GFSNIL_sfc_dewp_066.txt.gz
Dewpoint
43 43 42 41 42 42 43 45 45 46 46 46 47 49 54 57 57 57 56 55 55 56
40 39 39 39 39 39 39 39 41 42 42 42 43 45 48 49 50 51 50 50 50 51
38 38 38 38 38 38 37 38 38 38 39 39 40 42 43 43 44 45 46 46 45 44
37 38 37 37 37 37 37 37 37 37 37 37 38 38 39 39 40 42 42 42 42 41
37 37 36 37 37 37 37 37 37 37 37 37 37 37 37 37 37 37 36 37 37 38
36 36 37 38 37 37 36 36 37 37 36 35 36 36 36 36 36 37 37 37 37 36
35 36 37 37 37 37 36 36 36 36 36 36 35 35 36 36 36 36 36 37 38 38
36 37 37 37 36 36 37 37 38 37 37 37 36 36 35 35 35 34 33 33 33 34
37 37 36 36 35 36 36 36 37 36 37 38 37 37 36 33 31 28 26 26 26 29
36 36 36 36 34 34 35 34 31 31 31 31 32 33 32 30 24 21 19 19 22 26
36 36 35 34 33 34 32 29 27 26 27 28 30 30 29 26 17 17 18 20 23 24
36 35 34 34 33 32 28 26 23 24 21 23 25 28 26 22 20 19 19 20 22 25
36 35 34 33 31 27 23 25 23 24 20 28 24 29 29 25 21 19 20 20 22 26
36 34 33 32 28 27 28 27 21 21 21 22 24 23 26 28 23 22 21 21 21 23

GFSNIL_sfc_dewp_069.txt.gz
Dewpoint
43 43 42 42 43 41 42 43 43 44 44 44 45 48 52 55 55 56 56 55 56 56
40 40 40 40 40 40 39 39 40 41 42 42 43 45 47 49 51 50 50 50 50 50
38 38 38 39 38 38 38 38 39 39 39 40 41 42 44 45 46 46 46 46 46 45
38 38 38 38 38 37 38 38 38 38 38 38 39 39 41 41 43 43 43 42 42 41
38 38 38 38 38 38 38 38 37 37 37 37 37 38 38 38 39 39 39 39 39 39
37 38 38 38 37 37 37 37 37 36 36 36 37 37 37 38 38 38 38 37 37 37
37 37 37 37 37 37 37 36 36 37 36 36 36 36 37 37 37 37 36 37 37 37
37 37 37 37 36 37 37 37 37 37 37 37 36 35 35 35 35 34 33 33 32 34
37 37 37 36 36 37 37 36 36 37 37 37 37 37 37 32 29 27 28 29 29 30
37 36 36 35 35 35 34 33 33 33 33 33 33 33 31 29 26 26 26 27 30 29
37 36 36 34 34 34 32 31 30 30 30 31 31 29 28 28 26 27 26 27 26 26
36 35 35 34 34 32 29 28 28 28 28 30 30 28 26 23 21 21 21 21 25 26
36 35 34 34 33 30 29 28 28 28 28 30 28 30 28 23 19 19 19 21 21 27
36 35 34 33 30 29 28 27 25 23 23 23 24 25 29 29 24 22 21 20 20 22

GFSNIL_sfc_dewp_072.txt.gz
Dewpoint
46 47 46 45 45 44 44 44 44 45 45 45 46 48 51 54 56 57 56 56 56 57
43 44 43 43 43 42 42 40 41 42 43 44 44 46 48 51 53 53 52 51 51 50
40 41 41 41 41 40 40 40 40 41 41 42 42 44 46 48 48 49 49 48 48 48
39 40 39 40 39 39 39 39 39 39 39 40 40 41 43 44 45 45 45 45 44 44
39 39 39 39 39 39 39 39 39 38 38 38 39 40 41 41 41 42 42 41 41 41
39 39 39 39 39 38 38 38 38 37 37 38 39 39 39 39 39 39 39 39 39 38
38 39 39 38 38 38 38 38 38 37 37 37 37 38 38 38 38 38 38 38 38 37
38 38 38 38 37 38 38 37 37 37 37 37 37 36 37 37 37 37 36 35 35 36
38 38 38 37 37 38 38 37 38 37 37 38 37 37 36 35 34 33 33 32 32 30
38 37 37 36 36 37 36 36 36 37 36 35 34 33 32 30 30 31 31 32 31 29
37 37 36 36 36 35 34 35 34 32 31 31 28 29 28 29 33 33 31 29 26 26
37 37 36 35 35 34 32 33 33 32 33 34 29 28 26 21 21 21 21 24 25 25
37 36 36 35 34 32 33 33 31 32 32 29 27 28 26 22 18 16 17 18 19 27
37 36 36 35 33 32 32 30 30 27 27 27 27 29 31 28 22 19 18 18 17 20

GFSNIL_sfc_dewp_078.txt.gz
Dewpoint
48 48 47 46 46 45 44 45 44 44 45 45 45 46 47 49 51 53 54 53 53 53
45 45 45 44 44 43 42 41 41 42 43 43 44 45 46 47 49 50 52 52 51 50
43 42 42 42 41 41 40 40 41 41 41 41 42 43 44 46 48 48 49 48 48 47
41 40 40 40 40 40 40 40 40 39 39 40 40 41 42 43 44 45 46 45 44 45
40 40 40 40 40 39 39 39 39 39 38 39 39 40 40 41 42 42 42 42 42 42
40 40 39 39 39 39 39 38 38 38 38 38 39 39 40 40 40 39 39 39 39 39
40 40 40 39 39 39 39 38 38 38 38 38 38 39 39 39 39 39 39 39 38 37
39 39 39 39 39 38 38 38 38 38 38 38 38 37 38 39 39 38 36 35 34 35
39 39 39 38 38 38 38 38 38 38 38 39 37 38 38 38 36 35 34 32 30 29
39 38 39 38 37 37 36 38 38 38 37 37 36 36 36 36 33 31 31 30 29 28
39 38 38 37 37 36 37 37 37 37 36 33 32 32 33 32 30 30 29 28 27 27
39 38 37 37 35 35 36 36 35 33 31 29 29 29 28 26 26 24 24 25 27 26
39 38 37 37 36 35 35 34 34 33 31 32 28 29 26 23 21 19 19 19 25 27
38 38 37 37 33 34 34 33 32 31 31 28 27 27 28 26 22 19 19 19 18 23

GFSNIL_sfc_dewp_084.txt.gz
Dewpoint
49 49 50 49 49 49 49 47 45 45 45 45 44 45 45 46 47 49 50 50 50 50
47 47 47 46 46 45 44 43 43 43 43 43 43 43 44 45 46 47 48 48 48 48
45 45 45 44 43 42 41 41 41 41 41 41 41 41 42 43 45 45 46 46 46 46
43 43 42 42 41 40 40 40 40 40 40 40 40 40 40 41 42 43 44 44 43 44
41 41 40 40 40 40 40 40 39 39 39 39 39 39 39 39 40 41 41 42 43 43
40 40 40 40 39 39 39 39 38 38 38 38 39 39 38 39 39 38 38 38 40 40
40 39 39 39 39 39 38 38 38 37 38 38 38 38 38 38 37 37 37 37 36 37
40 40 39 39 38 38 38 38 38 37 37 37 38 38 38 39 39 38 36 36 35 35
40 39 39 38 37 37 37 36 36 36 37 37 37 39 40 40 38 36 35 33 31 31
39 39 38 37 37 36 35 35 36 36 38 38 38 39 39 40 36 34 33 30 27 27
39 38 37 36 36 34 34 34 35 35 37 37 35 38 39 38 34 33 31 27 27 27
39 37 36 35 34 33 33 33 33 34 36 34 33 36 37 32 27 27 27 25 26 29
39 37 36 36 34 32 32 33 32 34 34 33 30 33 32 27 24 23 24 25 27 31
38 37 36 35 34 35 33 33 34 33 32 30 28 28 30 29 21 20 20 22 22 25

GFSNIL_sfc_dewp_090.txt.gz
Dewpoint
56 57 57 57 57 55 54 52 49 47 46 46 45 45 45 45 45 46 47 47 48 49
52 52 53 54 54 54 52 49 47 45 44 44 43 43 43 43 44 45 46 46 47 49
47 49 51 50 50 49 47 45 44 42 42 42 42 42 42 42 43 43 43 45 45 45
45 45 45 44 43 42 42 42 41 42 41 41 40 40 40 40 40 41 42 42 43 42
43 43 42 41 41 41 40 40 40 40 39 39 39 39 39 39 40 40 40 40 42 42
41 41 41 40 40 40 40 39 39 39 38 39 39 38 38 38 38 38 37 37 38 39
40 40 40 40 40 39 39 38 38 38 38 38 37 38 38 37 36 36 36 36 36 37
39 39 39 39 39 38 38 38 38 37 37 37 37 37 37 38 37 38 38 37 36 37
39 39 38 37 37 37 36 36 36 36 36 36 37 39 39 40 39 39 37 35 33 32
39 38 37 37 36 36 35 35 35 35 35 35 36 39 40 40 40 37 36 35 33 28
38 37 37 36 35 34 34 34 34 34 34 34 36 38 39 40 36 35 34 33 30 26
39 37 36 35 35 33 33 33 33 33 33 33 33 37 39 38 34 34 32 30 27 27
39 38 36 36 34 32 32 33 33 32 33 35 33 36 37 36 31 30 29 25 25 31
39 38 36 35 32 31 31 33 34 32 32 33 33 32 36 37 25 25 23 23 24 26

GFSNIL_sfc_dewp_093.txt.gz
Dewpoint
60 60 60 60 59 59 57 55 54 52 50 48 47 47 47 47 47 48 49 49 50 51
55 56 57 57 57 56 56 54 50 47 46 46 46 45 45 45 45 46 48 49 50 51
51 52 54 54 54 52 50 48 46 45 44 43 43 43 43 43 44 44 45 47 47 48
46 48 50 50 49 47 46 44 43 42 42 42 41 41 41 41 42 42 43 44 45 46
45 45 45 45 44 44 43 42 42 41 40 40 40 40 40 40 41 41 41 42 44 44
43 43 43 42 42 42 41 40 40 40 39 39 40 39 39 39 39 40 40 40 41 41
42 42 41 41 41 40 40 39 39 39 39 39 38 38 39 39 39 38 38 39 39 39
41 41 40 40 40 39 39 39 38 38 38 38 38 38 39 39 39 39 38 38 37 37
40 40 40 39 39 39 39 38 38 38 38 38 38 41 41 40 39 39 39 37 35 35
40 39 39 38 38 38 38 38 38 38 38 38 38 40 41 41 41 40 39 37 35 30
40 39 38 38 38 37 37 38 37 37 37 38 37 40 40 41 40 38 38 36 34 29
40 39 38 38 38 37 37 36 37 37 37 37 37 39 39 39 36 36 35 32 29 27
40 40 38 38 37 36 36 36 36 36 36 37 36 38 39 38 35 34 33 30 28 32
40 40 39 38 36 36 35 36 36 35 35 35 36 35 38 38 32 32 30 28 26 25

GFSNIL_sfc_dewp_099.txt.gz
Dewpoint
63 61 60 60 61 62 61 60 61 61 61 61 61 59 59 57 56 54 54 53 53 52
61 62 62 62 62 62 61 60 60 61 60 60 58 57 56 53 51 49 51 51 52 51
57 58 60 61 60 60 60 59 59 58 56 54 52 51 50 48 48 47 48 49 49 50
49 51 54 56 58 58 58 56 55 53 52 51 48 46 46 46 46 46 46 46 47 47
47 48 50 52 54 55 54 53 51 48 47 48 46 44 43 43 44 44 44 44 45 45
46 46 47 48 50 51 52 49 46 45 44 43 43 42 42 42 42 42 43 43 44 44
45 46 46 46 47 48 48 47 45 43 42 43 42 43 42 42 41 41 42 43 43 43
45 45 45 45 45 45 45 45 44 42 42 42 41 41 42 41 41 41 41 42 42 43
44 44 44 44 43 43 44 43 42 42 42 42 39 43 43 43 41 41 41 41 40 39
42 43 44 44 43 43 43 43 42 42 41 41 41 43 43 43 42 42 42 42 41 39
43 43 44 43 43 44 43 43 43 42 41 42 41 43 43 43 43 42 42 41 40 38
43 43 43 44 44 44 43 43 43 42 42 42 42 43 43 42 41 40 40 40 39 38
42 43 43 44 44 44 44 43 43 42 42 42 41 42 43 42 39 38 38 38 37 37
42 43 43 44 45 45 43 42 41 40 40 40 40 40 42 42 38 37 37 36 34 33

GFSNIL_sfc_dewp_102.txt.gz
Dewpoint
61 60 60 60 59 59 60 60 60 61 61 60 60 60 59 59 58 56 55 53 52 52
62 61 60 60 60 59 59 61 61 61 61 61 60 60 59 58 56 54 53 52 52 50
56 58 61 61 61 60 60 60 59 60 60 60 60 59 57 55 52 51 51 50 50 50
48 50 53 55 58 58 58 58 58 57 56 54 54 53 52 50 49 48 47 47 48 48
47 47 49 51 53 56 56 55 54 53 53 52 50 48 47 46 47 45 46 45 46 46
46 46 46 48 50 51 52 51 49 48 48 47 46 46 46 47 46 45 44 45 44 44
45 45 45 45 47 48 49 48 45 45 44 44 44 44 44 44 44 43 43 44 44 44
45 45 44 44 45 45 46 46 45 43 43 43 43 43 43 43 43 43 43 43 43 43
42 44 44 44 44 43 43 43 43 42 42 43 41 44 45 43 42 42 42 41 41 40
43 42 43 44 43 43 42 42 42 41 41 41 41 45 45 44 42 41 41 40 40 38
42 43 43 43 43 42 42 41 41 41 41 41 41 44 44 44 40 40 39 39 39 38
42 42 42 42 42 41 41 41 41 41 40 40 40 44 44 43 40 40 39 40 39 38
41 42 41 41 41 41 41 40 39 40 40 41 40 44 44 43 40 38 39 39 39 41
41 41 41 40 40 42 43 42 41 40 40 41 41 40 44 44 39 39 38 38 37 36

GFSNIL_sfc_dewp_108.txt.gz
Dewpoint
60 60 59 59 60 60 60 60 60 60 60 60 60 59 60 59 59 58 58 57 56 55
60 60 59 60 60 59 59 60 60 60 60 60 60 59 59 59 59 59 58 57 56 54
58 59 60 60 59 59 59 59 59 59 59 58 60 60 60 59 59 58 56 56 55 54
47 49 52 55 58 59 59 59 59 59 59 59 59 60 60 59 58 57 57 55 54 53
46 46 47 49 51 54 54 54 55 56 57 57 57 57 58 58 56 56 56 55 54 53
45 44 44 45 46 48 50 50 50 50 51 53 54 54 53 54 53 53 54 54 53 53
43 44 44 44 44 45 46 47 47 47 47 48 49 48 49 49 50 50 50 50 50 50
43 43 43 43 44 44 44 44 44 45 45 44 45 45 45 46 47 48 48 48 48 48
42 42 42 43 43 43 43 42 42 42 43 43 42 44 46 46 44 45 46 46 46 46
41 41 41 42 42 41 41 41 41 41 41 41 41 44 45 46 44 42 43 43 43 43
40 40 40 40 40 39 40 40 40 40 40 40 41 44 45 45 42 40 41 41 42 42
39 39 39 38 38 38 38 38 39 40 41 41 40 42 44 44 41 39 38 40 41 41
38 38 37 37 38 40 39 39 41 41 42 43 42 43 44 44 42 41 40 40 40 42
37 36 36 36 37 38 39 39 38 36 39 39 41 41 44 44 43 42 40 39 40 40

GFSNIL_sfc_dewp_111.txt.gz
Dewpoint
60 59 60 60 60 59 59 59 60 60 60 60 60 60 59 59 58 58 58 58 57 57
60 59 59 60 59 59 59 60 60 60 59 59 59 59 59 59 59 58 58 58 58 57
56 59 59 59 59 59 59 60 60 59 59 59 59 59 59 59 59 59 59 58 58 57
48 51 53 55 56 58 58 59 58 59 59 58 58 59 59 59 59 58 58 58 56 56
45 45 45 46 48 50 52 53 53 53 55 56 56 57 57 57 57 57 57 57 56 55
43 44 44 44 44 45 46 48 49 48 49 50 51 52 53 53 53 54 54 55 55 55
42 42 43 43 44 44 44 44 45 46 46 46 46 47 47 48 48 49 51 51 51 52
42 42 42 42 42 43 43 43 43 43 43 43 43 43 44 45 45 46 47 48 49 49
41 41 41 41 41 41 41 41 41 41 41 41 42 44 45 46 44 44 44 45 45 46
40 40 39 40 39 39 38 39 39 39 40 40 40 44 45 45 43 42 41 41 43 43
38 38 38 38 38 38 37 37 38 38 39 39 40 43 44 45 41 40 40 40 40 41
37 36 37 36 36 36 37 36 36 37 37 38 39 43 44 44 43 42 41 40 40 41
36 35 34 34 35 36 36 37 38 38 37 38 38 41 43 43 42 41 42 41 40 42
34 33 33 33 34 34 33 33 33 34 36 36 37 38 41 42 40 40 40 41 41 40